• In Belarus
  • List of Countries
  • For 7 days
  • Water Temperature
  • Satellite Maps
  • Weather Map
  • Weather Widgets
  • user-avatar
    Login

    Hourly Weather Fez

    Today, 18 January, Friday

    Time Temperature Precipitation Wind Pressure Humidity
    00:00 +10°C° 0 mm 1 mps 730 mmHg 85%
    01:00 +9°C° 0.1 mm 1 mps 730 mmHg 85%
    02:00 +8°C° 0.1 mm 0 mps 730 mmHg 85%
    03:00 +8°C° 0.1 mm 0 mps 730 mmHg 86%
    04:00 +8°C° 0 mm 0 mps 730 mmHg 86%
    05:00 +7°C° 0 mm 0 mps 730 mmHg 86%
    06:00 +7°C° 0 mm 0 mps 730 mmHg 86%
    07:00 +8°C° 0 mm 0 mps 730 mmHg 82%
    08:00 +9°C° 0 mm 0 mps 731 mmHg 77%
    09:00 +10°C° 0 mm 0 mps 731 mmHg 73%
    10:00 +12°C° 0 mm 1 mps 731 mmHg 68%
    11:00 +13°C° 0 mm 1 mps 731 mmHg 64%
    12:00 +14°C° 0 mm 2 mps 731 mmHg 59%
    13:00 +15°C° 0.1 mm 2 mps 731 mmHg 58%
    14:00 +14°C° 0.1 mm 3 mps 731 mmHg 57%
    15:00 +14°C° 0.1 mm 3 mps 731 mmHg 56%
    16:00 +13°C° 0.1 mm 3 mps 731 mmHg 63%
    17:00 +13°C° 0.1 mm 2 mps 731 mmHg 71%
    18:00 +10°C° 0.1 mm 2 mps 731 mmHg 79%
    19:00 +10°C° 0.1 mm 2 mps 732 mmHg 82%
    20:00 +10°C° 0.1 mm 1 mps 732 mmHg 84%
    21:00 +10°C° 0.1 mm 1 mps 732 mmHg 87%
    22:00 +10°C° 0.1 mm 1 mps 733 mmHg 87%
    23:00 +9°C° 0.1 mm 1 mps 733 mmHg 88%

    Tomorrow, 19 January, Saturday

    Time Temperature Precipitation Wind Pressure Humidity
    00:00 +9°C° 0.1 mm 1 mps 733 mmHg 89%
    01:00 +9°C° 0 mm 1 mps 733 mmHg 87%
    02:00 +10°C° 0 mm 1 mps 733 mmHg 86%
    03:00 +10°C° 0 mm 1 mps 733 mmHg 85%
    04:00 +10°C° 0.1 mm 1 mps 733 mmHg 85%
    05:00 +10°C° 0.1 mm 1 mps 733 mmHg 85%
    06:00 +10°C° 0.1 mm 1 mps 733 mmHg 85%
    07:00 +10°C° 0.1 mm 1 mps 733 mmHg 84%
    08:00 +10°C° 0.1 mm 1 mps 733 mmHg 82%
    09:00 +11°C° 0.1 mm 1 mps 733 mmHg 81%
    10:00 +11°C° 0.4 mm 1 mps 733 mmHg 81%
    11:00 +11°C° 0.4 mm 1 mps 733 mmHg 81%
    12:00 +11°C° 0.4 mm 1 mps 733 mmHg 81%
    13:00 +11°C° 0.4 mm 1 mps 732 mmHg 82%
    14:00 +11°C° 0.4 mm 1 mps 732 mmHg 83%
    15:00 +11°C° 0.4 mm 1 mps 732 mmHg 83%
    16:00 +11°C° 1.7 mm 1 mps 732 mmHg 84%
    17:00 +10°C° 1.7 mm 2 mps 732 mmHg 85%
    18:00 +10°C° 1.7 mm 2 mps 732 mmHg 86%
    19:00 +10°C° 1.4 mm 2 mps 732 mmHg 88%
    20:00 +10°C° 1.4 mm 2 mps 732 mmHg 89%
    21:00 +12°C° 1.4 mm 2 mps 732 mmHg 90%
    22:00 +12°C° 0.7 mm 2 mps 732 mmHg 90%
    23:00 +11°C° 0.7 mm 3 mps 732 mmHg 91%

    Day after tomorrow, 20 January, Sunday

    Time Temperature Precipitation Wind Pressure Humidity
    00:00 +11°C° 0.7 mm 3 mps 732 mmHg 91%
    01:00 +11°C° 0.5 mm 3 mps 731 mmHg 90%
    02:00 +11°C° 0.5 mm 3 mps 731 mmHg 90%
    03:00 +11°C° 0.5 mm 4 mps 731 mmHg 89%
    04:00 +10°C° 0.2 mm 5 mps 730 mmHg 87%
    05:00 +11°C° 0.2 mm 6 mps 730 mmHg 85%
    06:00 +11°C° 0.2 mm 6 mps 730 mmHg 82%
    07:00 +11°C° 1 mm 7 mps 730 mmHg 83%
    08:00 +11°C° 1 mm 7 mps 730 mmHg 84%
    09:00 +11°C° 1 mm 7 mps 730 mmHg 85%
    10:00 +11°C° 0.7 mm 7 mps 730 mmHg 84%
    11:00 +11°C° 0.7 mm 7 mps 730 mmHg 84%
    12:00 +11°C° 0.7 mm 7 mps 730 mmHg 83%
    13:00 +12°C° 0.4 mm 7 mps 730 mmHg 80%
    14:00 +12°C° 0.4 mm 8 mps 730 mmHg 77%
    15:00 +13°C° 0.4 mm 8 mps 730 mmHg 74%
    16:00 +12°C° 0.6 mm 7 mps 730 mmHg 79%
    17:00 +11°C° 0.6 mm 6 mps 730 mmHg 83%
    18:00 +12°C° 0.6 mm 5 mps 731 mmHg 88%
    19:00 +11°C° 0.2 mm 4 mps 731 mmHg 89%
    20:00 +11°C° 0.2 mm 3 mps 731 mmHg 89%
    21:00 +10°C° 0.2 mm 3 mps 732 mmHg 90%
    22:00 +10°C° 0.2 mm 3 mps 732 mmHg 90%
    23:00 +10°C° 0.2 mm 2 mps 732 mmHg 91%

    21 January, Monday

    Time Temperature Precipitation Wind Pressure Humidity
    00:00 +10°C° 0.2 mm 2 mps 732 mmHg 91%
    01:00 +10°C° 0.3 mm 2 mps 732 mmHg 90%
    02:00 +10°C° 0.3 mm 2 mps 731 mmHg 88%
    03:00 +10°C° 0.3 mm 2 mps 731 mmHg 87%
    04:00 +9°C° 0.2 mm 2 mps 731 mmHg 87%
    05:00 +9°C° 0.2 mm 2 mps 731 mmHg 86%
    06:00 +8°C° 0.2 mm 2 mps 731 mmHg 86%
    07:00 +10°C° 0.1 mm 1 mps 732 mmHg 82%
    08:00 +10°C° 0.1 mm 1 mps 732 mmHg 79%
    09:00 +11°C° 0.1 mm 1 mps 733 mmHg 76%
    10:00 +12°C° 0.2 mm 2 mps 733 mmHg 71%
    11:00 +13°C° 0.2 mm 2 mps 733 mmHg 66%
    12:00 +14°C° 0.2 mm 2 mps 733 mmHg 61%
    13:00 +14°C° 0.2 mm 2 mps 732 mmHg 60%
    14:00 +13°C° 0.2 mm 3 mps 732 mmHg 59%
    15:00 +13°C° 0.2 mm 3 mps 731 mmHg 59%
    16:00 +13°C° 0.4 mm 2 mps 732 mmHg 65%
    17:00 +12°C° 0.4 mm 2 mps 732 mmHg 72%
    18:00 +11°C° 0.4 mm 1 mps 732 mmHg 79%
    19:00 +10°C° 0.4 mm 1 mps 732 mmHg 80%
    20:00 +9°C° 0.4 mm 2 mps 733 mmHg 81%
    21:00 +9°C° 0.4 mm 2 mps 733 mmHg 82%
    22:00 +9°C° 0.1 mm 1 mps 733 mmHg 83%
    23:00 +9°C° 0.1 mm 1 mps 733 mmHg 84%

    22 January, Tuesday

    Time Temperature Precipitation Wind Pressure Humidity
    00:00 +8°C° 0.1 mm 1 mps 733 mmHg 85%
    01:00 +8°C° 0 mm 1 mps 733 mmHg 85%
    02:00 +8°C° 0 mm 1 mps 733 mmHg 84%
    03:00 +7°C° 0 mm 1 mps 733 mmHg 84%
    04:00 +7°C° 0 mm 1 mps 733 mmHg 83%
    05:00 +7°C° 0 mm 1 mps 733 mmHg 82%
    06:00 +7°C° 0 mm 1 mps 733 mmHg 81%
    07:00 +8°C° 0 mm 1 mps 734 mmHg 77%
    08:00 +9°C° 0 mm 1 mps 734 mmHg 73%
    09:00 +9°C° 0 mm 1 mps 735 mmHg 69%
    10:00 +11°C° 0 mm 1 mps 735 mmHg 65%
    11:00 +12°C° 0 mm 1 mps 735 mmHg 61%
    12:00 +13°C° 0 mm 2 mps 735 mmHg 57%
    13:00 +13°C° 0 mm 2 mps 735 mmHg 55%
    14:00 +12°C° 0 mm 3 mps 734 mmHg 54%
    15:00 +13°C° 0 mm 3 mps 734 mmHg 52%
    16:00 +11°C° 0 mm 3 mps 734 mmHg 58%
    17:00 +10°C° 0 mm 3 mps 734 mmHg 64%
    18:00 +9°C° 0 mm 2 mps 734 mmHg 69%
    19:00 +8°C° 0 mm 2 mps 734 mmHg 72%
    20:00 +7°C° 0 mm 2 mps 735 mmHg 74%
    21:00 +7°C° 0 mm 2 mps 735 mmHg 76%
    22:00 +6°C° 0 mm 2 mps 735 mmHg 76%
    23:00 +6°C° 0 mm 2 mps 735 mmHg 76%

    23 January, Wednesday

    Time Temperature Precipitation Wind Pressure Humidity
    00:00 +6°C° 0 mm 2 mps 735 mmHg 76%
    01:00 +6°C° 0 mm 2 mps 734 mmHg 75%
    02:00 +5°C° 0 mm 2 mps 734 mmHg 74%
    03:00 +5°C° 0 mm 2 mps 734 mmHg 73%
    04:00 +6°C° 0 mm 2 mps 734 mmHg 70%
    05:00 +6°C° 0 mm 2 mps 734 mmHg 67%
    06:00 +6°C° 0 mm 2 mps 734 mmHg 64%
    07:00 +7°C° 0 mm 2 mps 734 mmHg 63%
    08:00 +7°C° 0 mm 2 mps 734 mmHg 62%
    09:00 +8°C° 0 mm 2 mps 735 mmHg 61%
    10:00 +8°C° 0 mm 2 mps 734 mmHg 62%
    11:00 +9°C° 0 mm 2 mps 734 mmHg 63%
    12:00 +9°C° 0 mm 2 mps 734 mmHg 64%
    13:00 +10°C° 0 mm 2 mps 733 mmHg 63%
    14:00 +12°C° 0 mm 2 mps 732 mmHg 63%
    15:00 +12°C° 0 mm 3 mps 732 mmHg 62%
    16:00 +12°C° 0 mm 2 mps 732 mmHg 68%
    17:00 +10°C° 0 mm 2 mps 732 mmHg 74%
    18:00 +10°C° 0 mm 1 mps 732 mmHg 80%
    19:00 +10°C° 0 mm 1 mps 732 mmHg 81%
    20:00 +10°C° 0 mm 1 mps 732 mmHg 83%
    21:00 +10°C° 0 mm 1 mps 733 mmHg 84%
    22:00 +10°C° 0.1 mm 1 mps 732 mmHg 86%
    23:00 +9°C° 0.1 mm 2 mps 732 mmHg 88%
    Show more